EW5580 Weather Reports


Display with metric or nautical units.
time (UTC)temp
F
wind
direction
speed
MPH
gust
MPH
rain 1hr
in
rain 24hr
in
rain mn
in
humidity
%
barometer
mb
20191019001602 48 273 0.0 5.0 0.00 0.00 0.00 61 1009.1
20191019000148 48 360 0.0 6.0 0.00 0.00 0.00 60 1008.9
20191018234655 49 324 0.0 1.0 0.00 0.00 0.00 57 1008.6
20191018233140 51 325 0.0 3.0 0.00 0.00 0.00 53 1008.5
20191018231613 51 337 2.0 10.0 0.00 0.00 0.00 52 1008.1
20191018230129 51 343 1.0 6.0 0.00 0.00 0.00 51 1008.0
20191018224608 52 360 0.0 6.0 0.00 0.00 0.00 52 1007.7
20191018223140 52 329 2.0 5.0 0.00 0.00 0.00 52 1007.5
20191018221633 53 309 1.0 5.0 0.00 0.00 0.00 52 1007.2
20191018220201 54 355 1.0 5.0 0.00 0.00 0.00 50 1007.0
20191018214631 55 26 1.0 6.0 0.00 0.00 0.00 49 1006.9
20191018213043 55 351 1.0 10.0 0.00 0.00 0.00 47 1006.7
20191018211607 56 13 2.0 12.0 0.00 0.00 0.00 46 1006.6
20191018210056 57 13 3.0 9.0 0.00 0.00 0.00 44 1006.5
20191018204620 58 292 4.0 14.0 0.00 0.00 0.00 43 1006.2
20191018203102 58 292 4.0 12.0 0.00 0.00 0.00 43 1006.0
20191018201537 58 9 4.0 10.0 0.00 0.00 0.00 44 1005.7
20191018200032 57 305 2.0 10.0 0.00 0.00 0.00 45 1005.4
20191018194530 58 325 2.0 13.0 0.00 0.00 0.00 45 1005.4
20191018193021 58 360 2.0 9.0 0.00 0.00 0.00 47 1005.2
20191018191526 57 329 2.0 12.0 0.00 0.00 0.00 52 1005.1
20191018190117 57 33 4.0 10.0 0.00 0.00 0.00 52 1004.9
20191018184612 57 16 4.0 10.0 0.00 0.00 0.00 52 1004.7
20191018183102 57 28 4.0 10.0 0.00 0.00 0.00 52 1004.6
20191018181602 57 257 4.0 12.0 0.00 0.00 0.00 53 1004.4
20191018180049 56 355 6.0 12.0 0.00 0.00 0.00 53 1004.5
20191018174540 57 42 5.0 11.0 0.00 0.00 0.00 53 1004.5
20191018173110 58 311 5.0 10.0 0.00 0.00 0.00 54 1004.1
20191018171534 57 342 4.0 11.0 0.00 0.00 0.00 55 1004.1
20191018170029 57 315 5.0 12.0 0.00 0.00 0.00 57 1004.2
20191018164534 56 47 5.0 16.0 0.00 0.00 0.00 60 1004.2
20191018163039 56 17 6.0 13.0 0.00 0.00 0.00 61 1004.2
20191018161556 55 318 4.0 16.0 0.00 0.00 0.00 61 1004.1
20191018160059 55 325 6.0 14.0 0.00 0.00 0.00 64 1004.1
20191018154541 55 12 2.0 10.0 0.00 0.02 0.00 65 1004.1
20191018153026 54 11 6.0 12.0 0.00 0.02 0.00 65 1004.1
20191018151517 54 289 2.0 11.0 0.00 0.02 0.00 66 1004.0
20191018150013 54 360 2.0 10.0 0.00 0.02 0.00 66 1004.0
20191018144504 53 315 3.0 15.0 0.00 0.05 0.00 67 1003.8
20191018143004 53 360 4.0 11.0 0.00 0.05 0.00 67 1003.7
20191018141726 53 355 4.0 10.0 0.00 0.05 0.00 67 1003.5
20191018140242 53 300 6.0 14.0 0.00 0.05 0.00 68 1003.4
20191018134639 52 319 3.0 11.0 0.00 0.10 0.00 70 1003.3
20191018133156 52 284 3.0 9.0 0.00 0.10 0.00 72 1003.1
20191018131631 51 267 3.0 8.0 0.00 0.10 0.00 72 1002.8
20191018130132 51 273 2.0 6.0 0.00 0.10 0.00 74 1002.5
20191018124655 50 13 1.0 5.0 0.00 0.16 0.00 75 1002.4
20191018123131 50 301 0.0 3.0 0.00 0.16 0.00 78 1002.2
20191018121603 49 275 0.0 4.0 0.00 0.16 0.00 78 1001.9
20191018120119 48 303 1.0 5.0 0.00 0.16 0.00 79 1001.6
20191018114625 46 277 0.0 3.0 0.00 0.24 0.00 82 1001.2
20191018113121 46 275 0.0 3.0 0.00 0.24 0.00 84 1000.9
20191018111545 46 298 0.0 3.0 0.00 0.24 0.00 83 1000.5
20191018110122 46 281 0.0 3.0 0.00 0.24 0.00 82 1000.1
20191018104543 46 311 2.0 5.0 0.00 0.34 0.00 83 999.9
20191018103059 45 294 2.0 4.0 0.00 0.34 0.00 84 999.6
20191018101542 45 294 0.0 3.0 0.00 0.34 0.00 85 999.5
20191018100111 45 294 0.0 2.0 0.00 0.34 0.00 85 999.2
20191018094545 45 294 0.0 2.0 0.00 0.48 0.00 84 999.1
20191018093040 46 298 0.0 3.0 0.00 0.48 0.00 83 998.8
20191018091521 47 291 0.0 4.0 0.00 0.48 0.00 82 998.5
20191018090010 47 297 0.0 4.0 0.00 0.48 0.00 82 998.2
20191018084505 47 265 0.0 4.0 0.00 0.64 0.00 80 997.9
20191018083002 48 300 1.0 6.0 0.00 0.64 0.00 80 997.7
20191018081642 48 285 2.0 8.0 0.00 0.64 0.00 79 997.5
20191018080259 48 276 2.0 5.0 0.00 0.64 0.00 78 997.3
20191018074708 48 296 1.0 5.0 0.00 0.82 0.00 78 997.0
20191018073146 49 261 1.0 6.0 0.00 0.82 0.00 77 996.8
20191018071609 49 284 1.0 7.0 0.00 0.82 0.00 76 996.8
20191018070130 49 306 1.0 3.0 0.00 0.82 0.00 76 996.7
20191018064703 49 311 1.0 7.0 0.00 1.08 0.00 76 996.5
20191018063112 49 325 1.0 5.0 0.00 1.08 0.00 76 996.3
20191018061624 48 315 0.0 6.0 0.00 1.08 0.00 77 996.4
20191018060120 48 284 2.0 5.0 0.00 1.08 0.00 77 996.1
20191018054611 48 311 0.0 3.0 0.00 1.32 0.00 75 995.8
20191018053052 49 317 0.0 3.0 0.00 1.32 0.00 74 995.5
20191018051659 50 310 1.0 7.0 0.00 1.32 0.00 73 995.4
20191018050140 50 311 1.0 5.0 0.00 1.32 0.00 71 995.2
20191018044550 51 360 2.0 7.0 0.00 1.57 0.00 70 995.0
20191018043046 51 318 3.0 11.0 0.00 1.57 0.00 71 994.5
20191018041532 51 279 1.0 9.0 0.00 1.57 0.00 71 994.3
20191018040044 51 240 2.0 9.0 0.00 1.57 0.00 72 994.1
20191018034542 51 304 1.0 6.0 0.00 1.81 1.57 73 993.8
20191018033045 51 291 1.0 8.0 0.00 1.81 1.57 73 993.6
20191018031516 51 323 0.0 4.0 0.00 1.81 1.57 73 993.4
20191018030052 51 292 0.0 9.0 0.00 1.81 1.57 73 993.0
20191018024516 51 279 0.0 2.0 0.00 1.93 1.57 74 992.6
20191018023010 51 279 0.0 3.0 0.00 1.93 1.57 73 992.3
20191018021506 51 271 0.0 6.0 0.00 1.93 1.57 71 991.9
20191018020001 52 289 2.0 7.0 0.00 1.93 1.57 71 991.6
20191018014617 52 267 2.0 9.0 0.00 2.06 1.57 71 991.3
20191018013127 51 344 1.0 8.0 0.00 2.06 1.57 72 991.1
20191018011644 51 319 1.0 9.0 0.00 2.06 1.57 72 990.6
20191018010247 51 275 3.0 8.0 0.00 2.06 1.57 72 990.3
20191018004614 51 286 4.0 11.0 0.00 2.12 1.57 71 990.0
20191018003130 51 284 2.0 9.0 0.00 2.12 1.57 72 989.9